Weather History for Greybull, WY

Change the Weather History Date:

Tuesday, November 5, 2013

  Actual Average Record
Temperature  
Mean Temperature 31 °F 37 °F  
Max Temperature 41 °F 50 °F 68 °F (2001)
Min Temperature 20 °F 24 °F 0 °F (2003)
Degree Days  
Heating Degree Days 34 28  
Month to date heating degree days 136 134  
Since 1 July heating degree days 945 956  
Cooling Degree Days 0 0  
Month to date cooling degree days 0 0  
Year to date cooling degree days 1005 669  
Moisture  
Dew Point 20 °F    
Average Humidity 67    
Maximum Humidity 100    
Minimum Humidity 33    
Precipitation  
Precipitation 0.00 in 0.01 in 0.01 in (2002)
Month to date precipitation T 0.04  
Year to date precipitation 4.85 6.97  
Sea Level Pressure  
Sea Level Pressure 30.17 in    
Wind  
Wind Speed 5 mph (SE)    
Max Wind Speed 14 mph    
Max Gust Speed 18 mph    
Visibility 10 miles    
Events      
T = Trace of Precipitation, MM = Missing Value Source: NWS Daily Summary

Daily Weather History Graph

Daily Weather History Graph

Search for Another Location

Airport:

Trip Planner

Search our weather history database for the weather conditions in past years. The results will help you decide how hot, cold, wet, or windy it might be!

Date:

Astronomy

Nov. 05, 2013 Rise Set
Actual Time 6:55 AM MST 4:55 PM MST
Civil Twilight 6:24 AM MST 5:26 PM MST
Nautical Twilight 5:50 AM MST 6:00 PM MST
Astronomical Twilight 5:16 AM MST 6:34 PM MST
Moon 9:17 AM MST (11/5) 6:56 PM MST (11/5)
Length of Visible Light 11h 01m
Length of Day
10h 00m
Waxing Crescent, 7% of the Moon is Illuminated
Nov 5
Waxing Crescent
Nov 9
First Quarter
Nov 17
Full
Nov 25
Last Quarter
Dec 2
New

Hourly Weather History & Observations

Time (MST) Temp. Windchill Dew Point Humidity Pressure Visibility Wind Dir Wind Speed Gust Speed Precip Events Conditions
12:53 AM 24.1 °F 15.2 °F 21.0 °F 88% 30.15 in 10.0 mi NW 8.1 mph - N/A   Partly Cloudy
1:53 AM 21.9 °F - 19.9 °F 92% 30.15 in 10.0 mi Calm Calm - N/A   Partly Cloudy
2:53 AM 21.9 °F 17.2 °F 19.9 °F 92% 30.17 in 10.0 mi SSW 3.5 mph - N/A   Clear
3:21 AM 23.0 °F - 19.4 °F 86% 30.08 in 10.0 mi Calm Calm - N/A   Partly Cloudy
3:53 AM 21.0 °F 16.2 °F 19.0 °F 92% 30.18 in 10.0 mi ENE 3.5 mph - N/A   Scattered Clouds
4:22 AM 21.2 °F - 21.2 °F 100% 30.09 in 10.0 mi Calm Calm - N/A   Mostly Cloudy
4:53 AM 23.0 °F - 21.9 °F 96% 30.20 in 10.0 mi Calm Calm - N/A   Overcast
5:53 AM 25.0 °F 20.7 °F 25.0 °F 100% 30.21 in 10.0 mi East 3.5 mph - N/A   Overcast
6:53 AM 26.1 °F 21.9 °F 24.1 °F 92% 30.22 in 10.0 mi SSE 3.5 mph - N/A   Overcast
7:15 AM 26.6 °F 21.2 °F 24.8 °F 93% 30.12 in 10.0 mi South 4.6 mph - N/A   Overcast
7:53 AM 25.0 °F 19.3 °F 24.1 °F 96% 30.24 in 10.0 mi ESE 4.6 mph - N/A   Overcast
8:27 AM 26.6 °F 22.6 °F 24.8 °F 93% 30.14 in 10.0 mi SE 3.5 mph - N/A   Mostly Cloudy
8:38 AM 26.6 °F 21.2 °F 24.8 °F 93% 30.14 in 10.0 mi East 4.6 mph - N/A   Overcast
8:53 AM 28.0 °F 24.2 °F 25.0 °F 88% 30.25 in 10.0 mi SE 3.5 mph - N/A   Overcast
9:01 AM 28.4 °F 23.3 °F 24.8 °F 86% 30.14 in 10.0 mi SE 4.6 mph - N/A   Overcast
9:08 AM 28.4 °F 23.3 °F 24.8 °F 86% 30.14 in 10.0 mi SE 4.6 mph - N/A   Mostly Cloudy
9:43 AM 30.2 °F 25.4 °F 24.8 °F 80% 30.13 in 10.0 mi SE 4.6 mph - N/A   Scattered Clouds
9:53 AM 32.0 °F 25.6 °F 25.0 °F 75% 30.23 in 10.0 mi ESE 6.9 mph - N/A   Partly Cloudy
10:33 AM 33.8 °F 26.4 °F 24.8 °F 70% 30.13 in 10.0 mi SSE 9.2 mph - N/A   Mostly Cloudy
10:53 AM 34.0 °F 27.2 °F 23.0 °F 64% 30.22 in 10.0 mi SE 8.1 mph - N/A   Scattered Clouds
11:01 AM 35.6 °F 28.6 °F 23.0 °F 60% 30.13 in 10.0 mi South 9.2 mph - N/A   Mostly Cloudy
11:08 AM 35.6 °F 27.5 °F 23.0 °F 60% 30.12 in 10.0 mi SSE 11.5 mph - N/A   Scattered Clouds
11:53 AM 37.0 °F 29.3 °F 21.9 °F 54% 30.19 in 10.0 mi ESE 11.5 mph - N/A   Partly Cloudy
12:53 PM 37.9 °F 31.5 °F 18.0 °F 45% 30.17 in 10.0 mi SE 9.2 mph - N/A   Clear
1:53 PM 39.0 °F 31.8 °F 17.1 °F 41% 30.15 in 10.0 mi SSE 11.5 mph - N/A   Clear
2:53 PM 39.9 °F 34.5 °F 14.0 °F 35% 30.14 in 10.0 mi SSE 8.1 mph - N/A   Clear
3:53 PM 39.0 °F 34.0 °F 12.9 °F 34% 30.15 in 10.0 mi SSE 6.9 mph - N/A   Clear
4:53 PM 37.0 °F - 14.0 °F 39% 30.14 in 10.0 mi Calm Calm - N/A   Clear
5:53 PM 33.1 °F 28.7 °F 15.1 °F 48% 30.15 in 10.0 mi ESE 4.6 mph - N/A   Clear
6:53 PM 30.0 °F 25.2 °F 16.0 °F 56% 30.17 in 10.0 mi ESE 4.6 mph - N/A   Clear
7:53 PM 28.0 °F - 16.0 °F 61% 30.19 in 10.0 mi Calm Calm - N/A   Clear
8:53 PM 28.9 °F 22.8 °F 15.1 °F 56% 30.19 in 10.0 mi East 5.8 mph - N/A   Clear
9:53 PM 30.0 °F 24.1 °F 14.0 °F 51% 30.19 in 10.0 mi SE 5.8 mph - N/A   Overcast
10:53 PM 27.0 °F 21.6 °F 17.1 °F 66% 30.19 in 10.0 mi ESE 4.6 mph - N/A   Overcast
11:53 PM 28.0 °F 24.2 °F 17.1 °F 63% 30.19 in 10.0 mi South 3.5 mph - N/A   Overcast